Weather History for PAIK - March, 2013

Change the Weather History Date:

Sunday, March 3, 2013

  Actual Average (PASK) Record (PASK)
Temperature  
Mean Temperature 7 °F -  
Max Temperature 18 °F 3 °F 37 °F (2003)
Min Temperature -4 °F -5 °F -27 °F (1999)
Degree Days  
Heating Degree Days 58    
Moisture  
Dew Point 1 °F    
Average Humidity 72    
Maximum Humidity 87    
Minimum Humidity 61    
Precipitation  
Precipitation 0.00 in - - ()
Sea Level Pressure  
Sea Level Pressure 30.40 in    
Wind  
Wind Speed 8 mph (East)    
Max Wind Speed 15 mph    
Max Gust Speed 22 mph    
Visibility 10 miles    
Events      
Averages and records for this station are not official NWS values.
T = Trace of Precipitation, MM = Missing Value Source: NWS Daily Summary

Daily Weather History Graph

Daily Weather History Graph

Search for Another Location

Airport or City:

Trip Planner

Search our weather history database for the weather conditions in past years. The results will help you decide how hot, cold, wet, or windy it might be!

Date:

Astronomy

Mar. 03, 2013 Rise Set
Actual Time 8:47 AM AKST 7:01 PM AKST
Civil Twilight 7:54 AM AKST 7:54 PM AKST
Nautical Twilight 6:52 AM AKST 8:56 PM AKST
Astronomical Twilight 5:47 AM AKST 10:02 PM AKST
Moon 3:59 AM AKST (3/3) 9:00 AM AKST (3/3)
Length of Visible Light 12h 00m
Length of Day
10h 13m
Waning Gibbous, 62% of the Moon is Illuminated
Mar 3
Waning Gibbous
Mar 4
Last Quarter
Mar 11
New
Mar 19
First Quarter
Mar 27
Full

Hourly Weather History & Observations

Time (AKST) Temp. Windchill Dew Point Humidity Pressure Visibility Wind Dir Wind Speed Gust Speed Precip Events Conditions
12:01 AM -4.0 °F -12.4 °F -7.1 °F 87% 30.38 in 10.0 mi East 3.5 mph - N/A   Clear
1:01 AM -2.0 °F -10.1 °F -7.1 °F 79% 30.39 in 10.0 mi Variable 3.5 mph - N/A   Clear
2:01 AM -0.0 °F -9.9 °F -6.0 °F 76% 30.39 in 10.0 mi East 4.6 mph - N/A   Clear
3:01 AM -0.0 °F -15.3 °F -5.1 °F 79% 30.39 in 10.0 mi East 9.2 mph - N/A   Clear
4:01 AM -0.0 °F -17.1 °F -4.0 °F 83% 30.38 in 10.0 mi East 11.5 mph - N/A   Clear
5:01 AM -0.0 °F -7.9 °F -6.0 °F 76% 30.39 in 10.0 mi Variable 3.5 mph - N/A   Clear
6:01 AM -0.0 °F -7.9 °F -4.0 °F 83% 30.39 in 10.0 mi Variable 3.5 mph - N/A   Clear
7:01 AM 1.0 °F -18.0 °F -4.0 °F 79% 30.38 in 10.0 mi East 15.0 mph 20.7 mph N/A   Clear
8:01 AM 1.0 °F -8.7 °F -4.0 °F 79% 30.39 in 10.0 mi NE 4.6 mph - N/A   Clear
9:01 AM 6.1 °F -9.5 °F -0.0 °F 76% 30.38 in 10.0 mi East 11.5 mph - N/A   Clear
10:01 AM 5.0 °F - -0.9 °F 76% 30.39 in 10.0 mi Calm Calm - N/A   Clear
11:01 AM 7.0 °F -4.5 °F -0.0 °F 73% 30.41 in 10.0 mi Variable 6.9 mph - N/A   Clear
12:01 PM 9.0 °F -7.3 °F 1.0 °F 70% 30.40 in 10.0 mi East 13.8 mph 21.9 mph N/A   Clear
1:01 PM 12.9 °F -0.9 °F 3.0 °F 65% 30.39 in 10.0 mi ESE 11.5 mph 19.6 mph N/A   Clear
2:01 PM 15.1 °F 5.2 °F 3.9 °F 61% 30.41 in 10.0 mi Variable 6.9 mph 17.3 mph N/A   Clear
3:01 PM 16.0 °F 4.4 °F 5.0 °F 62% 30.41 in 10.0 mi East 9.2 mph - N/A   Clear
4:01 PM 16.0 °F 3.6 °F 6.1 °F 65% 30.41 in 10.0 mi East 10.4 mph 16.1 mph N/A   Mostly Cloudy
5:01 PM 18.0 °F 4.8 °F 7.0 °F 62% 30.42 in 10.0 mi East 12.7 mph 20.7 mph N/A   Overcast
6:01 PM 18.0 °F 4.8 °F 8.1 °F 65% 30.40 in 10.0 mi East 12.7 mph 20.7 mph N/A   Overcast
7:01 PM 18.0 °F 5.4 °F 8.1 °F 65% 30.42 in 10.0 mi East 11.5 mph 19.6 mph N/A   Overcast
8:01 PM 17.1 °F 3.0 °F 8.1 °F 68% 30.43 in 10.0 mi East 13.8 mph 18.4 mph N/A   Overcast
9:01 PM 17.1 °F 2.5 °F 8.1 °F 68% 30.44 in 10.0 mi East 15.0 mph 21.9 mph N/A   Overcast
10:01 PM 17.1 °F 3.0 °F 8.1 °F 68% 30.45 in 10.0 mi East 13.8 mph 19.6 mph N/A   Overcast
11:01 PM 18.0 °F 4.2 °F 8.1 °F 65% 30.46 in 10.0 mi East 13.8 mph 19.6 mph N/A   Overcast